RH
14 13 13 12 9 6 5 5 5 4 4 3 4 4 4 3 3 3 3 3 3 3 3 3 3 3 3 3 3 3 3 3 3 3 3 3 3 3 3 3 4 4
14 13 14 13 12 8 6 5 5 4 4 4 4 4 4 4 3 3 3 3 3 3 3 4 3 3 3 3 3 3 3 3 3 3 3 3 3 3 3 3 3 4
15 13 13 14 13 11 8 6 5 5 4 4 4 4 4 4 4 3 3 3 3 3 3 4 4 4 4 3 3 3 3 3 3 3 3 3 3 3 3 2 3 3
15 14 13 13 14 13 10 7 5 5 5 4 4 4 4 4 4 4 4 3 3 3 3 3 3 4 4 4 3 3 3 3 3 3 3 3 3 3 3 3 2 3
16 15 14 13 14 14 13 9 6 5 5 5 4 4 4 4 4 4 4 4 3 3 3 3 3 4 3 4 4 3 4 3 3 3 3 3 3 3 3 3 3 3
16 16 14 14 14 14 15 13 9 6 5 5 5 4 4 4 4 4 4 4 4 3 3 3 3 3 3 3 3 3 4 4 3 3 3 3 3 3 3 3 3 3
15 16 15 14 13 14 15 15 12 8 5 5 5 5 5 4 4 4 4 4 4 4 3 3 3 3 3 3 3 4 3 3 4 3 3 3 3 3 3 3 3 3
15 16 16 15 14 13 14 15 15 11 7 6 5 5 5 4 4 4 4 4 4 4 3 3 4 3 3 3 3 3 3 3 3 3 3 3 3 3 3 3 3 3
15 15 16 16 15 14 14 14 15 14 10 6 6 6 5 5 5 4 4 4 4 4 4 3 4 3 3 3 3 3 3 3 3 3 3 3 3 3 3 3 3 3
15 15 16 16 15 15 14 14 15 15 13 9 6 5 5 5 5 5 4 4 4 4 4 3 3 4 3 3 3 3 3 3 3 3 3 3 3 3 3 3 3 3
16 16 15 16 16 15 14 14 14 15 15 12 8 5 6 5 5 5 4 4 4 4 4 4 3 3 3 3 3 3 3 3 3 3 3 3 3 3 3 3 3 3
16 16 16 16 16 15 15 13 14 15 15 15 11 7 5 5 5 5 5 4 4 4 4 4 4 4 3 3 3 3 3 3 3 3 3 3 3 3 3 3 3 3
17 17 16 16 16 15 15 14 13 14 15 15 14 9 6 5 5 5 5 5 4 4 4 4 4 4 4 3 3 3 3 3 3 3 3 3 3 3 3 3 3 3
17 17 17 16 16 15 15 15 13 13 14 15 15 13 8 6 5 5 5 5 5 4 4 4 4 4 4 4 3 3 3 3 3 3 3 3 3 3 3 3 3 3
16 18 17 16 16 16 15 15 14 13 13 14 15 15 11 7 6 5 5 5 5 5 4 4 4 4 4 4 4 4 3 3 3 3 3 3 3 3 3 3 3 3
17 18 17 16 16 16 15 15 15 13 13 13 14 16 14 10 6 6 6 5 5 5 5 4 4 4 4 4 4 4 4 3 3 3 3 3 3 3 3 3 3 3
17 17 18 17 16 16 16 15 15 14 13 13 13 15 16 12 8 6 6 6 5 5 5 5 4 4 4 4 4 4 4 4 3 3 3 3 3 3 3 3 3 3
17 17 17 17 16 16 16 16 16 15 13 13 13 14 16 15 10 7 6 6 6 5 5 5 5 5 4 5 5 4 4 4 4 4 3 3 3 3 3 3 3 3
17 17 17 17 16 16 16 16 16 15 14 13 12 14 16 17 13 9 6 6 6 6 5 5 5 5 5 5 5 5 4 4 4 4 4 4 3 3 3 3 3 3
17 18 17 16 16 16 16 17 16 16 15 14 13 13 15 17 16 11 7 6 7 6 6 5 5 5 5 5 5 5 5 5 4 4 4 4 4 4 3 3 3 3
17 17 17 17 16 16 16 16 16 17 16 15 14 13 14 17 18 14 9 7 7 7 6 6 5 5 5 5 5 5 5 5 5 5 5 4 4 4 4 4 3 4
16 17 17 16 16 16 16 16 16 17 16 16 14 13 13 15 18 17 12 8 7 7 7 6 6 5 5 5 5 5 5 6 5 5 6 5 4 4 4 4 4 3
15 16 16 15 16 16 16 16 17 17 17 16 15 14 13 14 17 19 15 10 7 7 7 7 6 6 6 5 5 5 5 5 6 6 6 6 5 5 4 4 4 4
15 15 15 15 15 16 17 17 17 17 17 17 16 15 14 14 16 19 17 12 8 7 7 7 7 6 6 6 5 5 5 5 5 6 6 6 6 6 5 4 4 4
14 14 15 15 15 16 17 17 17 17 17 18 17 16 14 14 16 19 20 16 10 7 7 7 7 7 6 6 6 5 5 5 5 6 6 6 6 6 7 6 5 4
14 14 14 14 15 16 17 17 17 17 17 18 18 17 15 14 15 18 21 19 13 9 7 7 7 7 6 6 6 6 5 5 5 5 6 6 6 6 7 7 6 5
Wind_Speed
60 55 52 50 46 43 40 39 39 38 37 35 35 36 38 41 43 45 47 49 52 55 58 62 65 68 72 75 78 81 85 89 94 99 103 107 110 114 118 121 126 131
62 58 54 51 48 45 42 39 38 38 37 36 35 35 36 38 40 43 46 47 49 51 54 58 61 64 67 71 74 77 80 83 88 92 97 102 106 110 113 116 120 124
65 60 56 52 49 47 43 40 39 38 37 36 36 35 35 36 38 40 43 45 47 49 50 53 57 60 64 67 70 73 76 79 82 86 90 95 101 106 109 112 115 119
66 63 59 54 51 48 45 42 39 38 37 36 36 35 34 35 36 38 40 43 45 47 49 50 53 56 59 62 66 69 72 75 78 81 84 89 94 100 105 109 112 114
68 65 61 58 54 50 48 45 41 38 36 36 36 36 35 34 34 36 38 40 42 44 46 48 50 52 55 58 61 65 68 71 74 77 80 84 88 93 98 103 107 110
69 66 63 60 56 52 49 47 44 41 37 35 35 35 35 35 34 34 35 38 40 42 44 46 48 50 52 54 57 60 63 67 70 74 77 80 83 87 91 96 101 105
71 67 64 61 58 54 51 48 46 43 41 38 36 34 35 35 35 34 34 35 37 40 41 43 45 47 49 51 53 56 59 62 65 69 73 76 79 82 86 90 94 98
73 68 65 62 60 56 52 49 46 44 42 40 38 36 35 35 35 35 34 33 34 37 39 41 43 44 47 49 51 53 55 57 60 64 68 71 75 78 81 84 88 92
75 70 66 63 61 59 55 50 47 45 43 40 39 37 36 35 35 35 35 34 33 34 36 38 40 42 44 46 48 50 52 54 56 59 62 66 70 73 76 80 84 88
76 71 67 64 61 59 57 53 49 46 43 41 39 37 36 35 35 36 36 36 35 34 34 36 38 40 41 43 45 47 49 51 53 55 58 61 65 68 72 76 80 84
78 73 69 65 62 60 58 55 51 48 45 42 40 38 36 34 34 35 35 36 36 35 34 34 36 38 39 41 43 45 47 48 50 52 55 57 61 64 67 71 76 80
78 74 70 66 63 60 58 56 53 49 46 43 41 39 37 35 33 34 35 35 35 36 35 34 34 36 38 39 40 42 44 46 48 50 52 54 57 60 64 66 70 74
78 75 71 68 64 61 58 57 54 51 47 44 42 40 39 36 34 33 33 34 34 35 35 34 34 34 36 37 39 39 41 43 45 47 49 51 53 56 60 63 65 68
78 75 72 69 65 62 59 57 55 52 49 45 42 40 39 38 35 33 33 33 33 34 34 35 34 33 34 36 37 38 39 40 42 44 46 48 50 52 56 59 62 64
77 75 72 69 66 63 60 57 55 53 50 47 43 41 40 39 37 34 33 32 33 33 33 34 34 33 33 34 35 37 37 38 39 41 43 45 47 49 52 55 58 60
76 74 72 69 66 63 60 58 56 54 51 48 45 42 40 39 38 36 34 33 32 32 33 33 34 34 33 33 33 34 36 36 37 38 40 42 44 45 48 50 53 56
76 73 71 69 67 64 61 59 57 55 53 50 46 43 40 39 38 36 35 33 32 32 32 32 33 33 33 33 33 33 34 35 36 36 38 39 41 43 44 46 49 52
75 73 71 69 67 64 61 59 57 55 53 51 48 45 42 40 39 37 35 34 33 32 31 31 31 32 33 33 33 33 32 33 34 35 36 37 39 40 42 44 46 48
75 72 70 68 66 64 61 58 56 55 54 52 49 46 43 41 39 38 36 34 33 33 32 31 30 31 32 32 33 34 33 33 33 33 34 36 37 38 40 42 43 45
75 72 70 68 66 64 61 58 56 55 54 52 50 47 44 41 40 38 37 35 33 33 33 32 30 29 30 31 32 33 34 33 33 33 33 34 35 36 38 39 41 43
74 72 70 68 66 64 61 58 56 54 53 52 51 48 45 42 40 39 37 35 33 32 32 33 32 30 29 29 30 31 32 33 34 34 34 34 34 35 36 37 39 41
74 71 70 68 66 64 61 58 55 54 53 52 51 49 46 43 41 39 37 36 34 32 31 32 32 31 30 29 29 29 30 32 33 34 34 34 34 34 35 36 37 39
73 71 69 67 66 64 61 58 55 53 52 52 51 50 47 45 42 40 38 36 35 32 30 30 32 32 31 30 29 28 29 30 32 33 34 34 34 34 34 34 36 37
72 70 68 66 65 63 61 58 56 53 52 51 51 50 48 46 43 42 40 38 36 33 31 30 30 31 31 31 30 29 28 28 30 32 33 33 34 34 34 34 35 36
72 69 67 66 64 62 60 58 56 53 51 50 50 50 48 46 44 42 41 39 37 35 32 30 29 30 30 30 30 29 28 28 28 30 32 33 33 33 34 34 34 35
71 69 67 65 63 61 60 58 56 53 51 50 49 49 48 46 44 42 41 39 38 37 34 31 29 29 29 29 29 29 29 28 27 28 30 31 33 33 33 34 34 35
Wind_Direction
347 345 343 340 337 333 327 321 316 312 308 302 296 289 282 275 269 264 260 255 252 249 248 248 247 246 245 244 243 241 240 239 238 237 236 235 235 235 234 234 234 235
348 347 345 342 339 336 332 326 320 315 311 307 302 295 288 280 273 268 263 260 255 252 249 248 247 247 246 245 244 243 242 240 239 238 238 237 236 235 234 234 234 234
349 347 346 345 342 339 335 331 325 318 313 309 305 300 294 287 278 271 266 263 259 256 252 249 247 246 246 245 245 244 243 242 241 240 239 238 238 237 236 234 233 233
350 348 347 346 344 341 337 334 329 323 317 312 308 304 298 293 285 278 271 266 262 259 256 253 249 247 245 245 245 244 244 243 242 241 240 239 238 238 237 237 235 233
351 349 348 347 346 343 340 336 333 328 322 316 311 307 302 296 290 284 277 271 265 261 258 256 254 251 247 245 244 244 244 244 243 242 241 240 239 238 238 238 237 236
351 350 349 348 347 345 343 339 335 331 326 320 314 310 306 302 295 288 281 276 270 265 260 258 256 254 252 248 246 244 244 244 244 244 243 242 240 240 239 239 238 238
351 351 349 348 347 346 344 342 338 334 330 325 319 313 309 305 301 294 287 280 274 269 264 261 258 256 254 252 249 247 245 244 244 244 244 244 243 242 241 240 239 239
350 350 350 349 347 346 345 343 340 336 333 329 324 318 313 308 304 299 293 285 278 273 268 264 260 258 256 254 252 250 248 247 245 244 244 244 244 243 243 242 241 240
348 349 349 349 348 346 345 344 342 339 335 332 327 322 317 312 307 303 298 292 284 278 272 267 263 260 258 256 255 253 251 249 248 246 245 244 244 244 243 243 242 241
348 348 348 348 348 347 346 344 343 341 337 334 330 325 320 315 310 306 301 297 291 284 278 273 268 263 260 258 257 255 254 252 250 248 247 246 245 244 243 243 242 242
347 347 347 347 347 347 346 345 344 342 339 336 332 328 323 318 313 308 304 300 295 290 284 279 274 268 264 260 258 257 256 254 252 251 249 248 247 245 244 243 243 243
346 346 346 346 346 346 346 345 344 343 341 338 335 331 326 321 316 310 306 302 297 292 288 283 279 274 269 264 261 258 257 256 254 253 251 249 248 247 246 245 243 243
345 345 345 345 345 346 345 344 344 343 341 339 337 333 329 324 319 313 308 305 300 295 290 286 282 278 273 268 264 261 258 257 256 254 253 251 249 248 247 246 245 244
344 344 344 344 344 344 344 344 343 343 342 340 338 336 332 327 322 317 312 307 303 299 294 289 285 281 277 272 268 264 260 258 257 255 254 252 250 249 248 247 246 245
344 343 343 343 343 343 343 343 343 343 342 341 339 337 334 329 325 320 315 310 306 302 298 294 289 285 280 276 272 268 264 260 258 257 255 253 251 250 248 248 247 246
343 343 342 342 342 342 342 342 342 342 342 341 340 338 336 332 328 323 319 314 309 305 301 297 293 289 285 281 276 271 267 264 261 259 257 255 253 251 250 249 248 247
342 342 342 341 341 341 341 341 341 341 341 341 340 339 338 334 330 326 322 317 313 308 304 300 297 292 289 285 281 275 270 266 263 261 259 257 255 254 252 250 249 248
340 341 341 341 340 340 340 340 340 340 340 341 340 340 339 336 332 329 325 320 316 311 307 303 299 295 291 288 285 281 275 269 265 263 262 260 257 256 254 253 251 249
339 340 340 340 339 339 339 339 339 339 340 340 340 340 339 337 334 331 327 324 319 314 310 306 302 298 294 290 287 284 281 276 269 265 263 262 260 257 256 255 253 251
338 339 339 339 338 338 338 338 338 339 339 339 339 339 339 338 336 332 329 326 322 318 313 309 305 301 296 292 289 286 284 281 277 271 266 263 261 259 257 256 255 254
337 337 337 338 337 337 338 337 337 338 338 338 338 339 339 339 337 333 330 328 325 321 316 312 308 304 299 295 291 287 284 283 281 277 272 267 263 261 259 257 256 255
336 336 336 337 336 336 336 337 337 337 337 337 337 338 338 338 337 335 331 329 327 324 319 314 310 307 303 298 294 289 284 282 280 278 276 272 267 263 261 259 258 256
335 335 335 335 335 335 335 335 336 336 337 337 337 337 338 338 338 335 332 330 328 326 323 317 312 308 305 301 298 293 288 283 280 278 276 273 271 267 263 260 259 258
333 334 334 334 334 334 334 334 335 335 336 336 336 336 337 337 338 336 333 331 329 327 325 321 315 310 306 303 300 296 292 287 282 280 277 275 272 270 267 263 260 259
332 332 333 333 333 333 333 333 334 334 335 336 335 335 336 336 337 337 335 332 330 328 327 324 319 313 308 304 301 298 295 291 286 281 279 277 275 272 269 267 264 261
331 331 331 332 332 332 332 332 332 333 334 335 335 334 334 335 336 337 335 333 331 329 327 325 322 316 310 305 301 298 296 293 289 284 279 277 276 274 271 268 266 264